Location: McFarlands Corners
(41.4117°N, 81.3382°W)
Time: 01:14:05
(UTC+00:00)

Transit 4A - Pass Details

Date: 22 February 2026
Orbit: 864 x 977 km, 66.8° (Epoch: 10 March)

Event Time Altitude Azimuth Distance (km) Brightness Sun altitude
Rises 15:07:36 0° 338° (NNW) 3,599 10.5 27.9°
Reaches altitude 10° 15:11:01 10° 357° (N) 2,674 10.0 28.4°
Maximum altitude 15:15:13 18° 39° (NE) 2,150 9.9 28.9°
Drops below altitude 10° 15:19:27 10° 82° (E) 2,708 10.9 29.4°
Sets 15:22:56 0° 100° (E) 3,663 11.7 29.8°
